Date String (YYYY-MM-DD hh:mm:ss) UTC,Instrument flags,Ambient pressure (hPa),Sample flow (lpm),Bypass flow (lpm),Sample temperature (°C),Ambient temperature (°C),ASC tube jacket temperature (°C),LED temperature (°C),Box temperature (°C),Sample RH (%),Span deviation,Mass concentration (μg/m³),Mass concentration (μg/m³),Mass concentration (μg/m³)
DateTimeUTC,F1_M11,P_M11,Q1_M11,Q2_M11,T1_M11,T2_M11,T3_M11,T4_M11,T5_M11,U1_M11,ZSPAN_M11,X0_M11,X2_M11,X1_M11
2022-08-18 12:00:00,,0830.9,5.00,0.00,30.4,29.4,00.0,39.2,32.3,16.5,0000.0,0009.66,0005.87,0005.42
2022-08-18 12:01:00,,0830.9,5.00,0.00,30.5,29.4,00.0,39.2,32.3,16.9,0000.0,0009.43,0005.86,0005.42
2022-08-18 12:02:00,,0830.9,5.00,0.00,30.5,29.4,00.0,39.2,32.3,16.8,0000.0,0009.23,0005.87,0005.43
2022-08-18 12:03:00,,0830.8,5.01,0.00,30.5,29.4,00.0,39.2,32.3,16.9,0000.0,0009.98,0005.86,0005.43
2022-08-18 12:04:00,,0830.7,5.00,0.00,30.5,29.4,00.0,39.2,32.3,16.5,0000.0,0009.85,0005.83,0005.41
2022-08-18 12:05:00,,0830.8,5.00,0.00,30.5,29.4,00.0,39.2,32.3,16.2,0000.0,0009.48,0005.83,0005.40
2022-08-18 12:06:00,,0830.7,5.01,0.00,30.5,29.4,00.0,39.2,32.3,15.8,0000.0,0009.30,0005.80,0005.40
2022-08-18 12:07:00,,0830.8,5.02,0.00,30.5,29.4,00.0,39.2,32.4,16.0,0000.0,0009.29,0005.79,0005.38
2022-08-18 12:08:00,,0830.8,5.00,0.00,30.5,29.4,00.0,39.2,32.4,15.6,0000.0,0009.24,0005.76,0005.37
2022-08-18 12:09:00,,0830.8,4.99,0.00,30.5,29.4,00.0,39.3,32.4,15.7,0000.0,0009.30,0005.76,0005.37
2022-08-18 12:10:00,,0830.7,5.00,0.00,30.5,28.9,00.0,39.2,32.2,15.5,0000.0,0009.40,0005.76,0005.36
2022-08-18 12:11:00,,0830.7,5.01,0.00,30.4,28.1,00.0,39.1,32.0,15.4,0000.0,0009.47,0005.73,0005.36
2022-08-18 12:12:00,,0830.6,5.00,0.00,30.3,27.9,00.0,39.1,31.9,15.4,0000.0,0009.39,0005.70,0005.36
2022-08-18 12:13:00,,0830.6,4.99,0.00,30.2,27.8,00.0,39.1,31.8,15.8,0000.0,0009.38,0005.70,0005.36
2022-08-18 12:14:00,,0830.6,5.00,0.00,30.1,27.9,00.0,39.0,31.7,15.9,0000.0,0008.77,0005.72,0005.37
2022-08-18 12:15:00,,0830.6,5.00,0.00,30.1,27.9,00.0,39.0,31.7,16.2,0000.0,0008.66,0005.76,0005.38
2022-08-18 12:16:00,,0830.6,4.99,0.00,30.1,28.0,00.0,39.0,31.8,16.7,0000.0,0008.68,0005.76,0005.38
2022-08-18 12:17:00,,0830.6,5.01,0.00,30.0,28.1,00.0,38.9,31.8,17.1,0000.0,0008.71,0005.74,0005.36
2022-08-18 12:18:00,,0830.7,5.00,0.00,30.0,28.2,00.0,38.9,31.8,17.0,0000.0,0009.35,0005.73,0005.34
2022-08-18 12:19:00,,0830.7,5.00,0.00,30.0,28.3,00.0,38.9,31.8,17.9,0000.0,0009.76,0005.72,0005.31
2022-08-18 12:20:00,,0830.7,5.00,0.00,30.0,28.4,00.0,38.9,31.8,18.2,0000.0,0009.59,0005.65,0005.26
2022-08-18 12:21:00,,0830.8,5.00,0.00,30.0,28.5,00.0,38.9,31.8,18.5,0000.0,0009.42,0005.56,0005.20
2022-08-18 12:22:00,,0830.8,4.99,0.00,30.0,28.5,00.0,38.9,31.8,18.9,0000.0,0009.22,0005.52,0005.13
2022-08-18 12:23:00,,0830.8,5.00,0.00,30.0,28.6,00.0,38.8,31.8,19.1,0000.0,0009.25,0005.48,0005.07
2022-08-18 12:24:00,,0830.8,5.01,0.00,30.0,28.6,00.0,38.8,31.8,19.1,0000.0,0009.23,0005.43,0005.01
2022-08-18 12:25:00,,0830.8,5.00,0.00,30.0,28.7,00.0,38.8,31.9,19.2,0000.0,0009.17,0005.38,0004.95
2022-08-18 12:26:00,,0830.7,5.00,0.00,30.0,28.7,00.0,38.8,31.9,19.2,0000.0,0009.04,0005.30,0004.90
2022-08-18 12:27:00,,0830.8,5.00,0.00,30.0,28.7,00.0,38.8,31.8,19.0,0000.0,0009.06,0005.27,0004.87
2022-08-18 12:28:00,,0830.7,5.00,0.00,30.0,28.8,00.0,38.8,31.9,18.8,0000.0,0009.15,0005.25,0004.84
2022-08-18 12:29:00,,0830.7,4.99,0.00,30.0,28.8,00.0,38.8,31.9,19.4,0000.0,0009.05,0005.23,0004.82
2022-08-18 12:30:00,,0830.8,5.00,0.00,30.0,28.8,00.0,38.8,31.9,21.2,0000.0,0008.72,0005.20,0004.79
2022-08-18 12:31:00,,0830.8,5.00,0.00,30.0,28.9,00.0,38.8,31.9,21.4,0000.0,0008.70,0005.19,0004.79
2022-08-18 12:32:00,,0830.8,5.00,0.00,30.0,28.9,00.0,38.8,31.9,20.8,0000.0,0008.70,0005.20,0004.80
2022-08-18 12:33:00,,0830.8,4.99,0.00,30.1,28.9,00.0,38.9,31.9,19.5,0000.0,0008.60,0005.18,0004.83
2022-08-18 12:34:00,,0830.8,5.00,0.00,30.1,28.9,00.0,38.9,31.9,18.0,0000.0,0008.56,0005.23,0004.89
2022-08-18 12:35:00,,0830.7,5.01,0.00,30.1,28.9,00.0,38.9,32.0,17.3,0000.0,0008.53,0005.26,0004.94
2022-08-18 12:36:00,,0830.7,5.00,0.00,30.1,28.9,00.0,38.9,32.0,17.2,0000.0,0009.14,0005.26,0004.97
2022-08-18 12:37:00,,0830.7,5.00,0.00,30.1,29.0,00.0,38.9,32.0,17.3,0000.0,0009.37,0005.30,0005.00
2022-08-18 12:38:00,,0830.8,5.00,0.00,30.1,29.0,00.0,38.9,32.0,17.2,0000.0,0009.38,0005.33,0005.02
2022-08-18 12:39:00,,0830.9,4.99,0.00,30.1,29.0,00.0,38.9,32.0,16.6,0000.0,0009.30,0005.34,0005.05
2022-08-18 12:40:00,,0830.9,5.00,0.00,30.1,29.0,00.0,38.9,32.0,18.7,0000.0,0008.77,0005.37,0005.09
2022-08-18 12:41:00,,0830.9,5.00,0.00,30.2,29.0,00.0,38.9,32.0,20.0,0000.0,0008.74,0005.40,0005.13
2022-08-18 12:42:00,,0830.9,5.00,0.00,30.2,29.1,00.0,38.9,32.0,19.0,0000.0,0008.81,0005.44,0005.15
2022-08-18 12:43:00,,0830.9,5.00,0.00,30.2,29.1,00.0,38.9,32.0,19.0,0000.0,0008.85,0005.47,0005.18
2022-08-18 12:44:00,,0830.9,5.00,0.00,30.2,29.1,00.0,38.9,32.1,18.5,0000.0,0008.91,0005.50,0005.19
2022-08-18 12:45:00,,0830.8,5.00,0.00,30.2,29.1,00.0,38.9,32.1,17.7,0000.0,0008.99,0005.51,0005.20
2022-08-18 12:46:00,,0830.8,4.99,0.00,30.2,29.1,00.0,38.9,32.1,18.0,0000.0,0008.99,0005.49,0005.19
2022-08-18 12:47:00,,0830.8,4.99,0.00,30.2,29.1,00.0,38.9,32.1,17.1,0000.0,0008.49,0005.52,0005.20
2022-08-18 12:48:00,,0830.8,5.00,0.00,30.2,29.1,00.0,39.0,32.1,16.6,0000.0,0008.27,0005.56,0005.25
2022-08-18 12:49:00,,0830.8,5.00,0.00,30.2,29.1,00.0,39.0,32.1,16.9,0000.0,0008.25,0005.60,0005.31
2022-08-18 12:50:00,,0830.8,5.00,0.00,30.2,29.1,00.0,39.0,32.1,16.8,0000.0,0008.28,0005.64,0005.35
2022-08-18 12:51:00,,0830.8,4.99,0.00,30.2,29.1,00.0,39.0,32.1,17.0,0000.0,0008.29,0005.67,0005.38
2022-08-18 12:52:00,,0830.8,5.00,0.00,30.2,29.1,00.0,39.0,32.1,17.2,0000.0,0008.43,0005.70,0005.41
2022-08-18 12:53:00,,0830.8,5.00,0.00,30.3,29.1,00.0,39.0,32.1,17.2,0000.0,0008.75,0005.75,0005.46
2022-08-18 12:54:00,,0830.8,5.01,0.00,30.3,29.2,00.0,39.0,32.1,17.2,0000.0,0008.82,0005.81,0005.50
2022-08-18 12:55:00,,0830.8,5.00,0.00,30.3,29.2,00.0,39.0,32.1,17.2,0000.0,0008.88,0005.87,0005.54
2022-08-18 12:56:00,,0830.7,5.00,0.00,30.3,29.2,00.0,39.0,32.1,17.1,0000.0,0009.20,0005.91,0005.57
2022-08-18 12:57:00,,0830.7,4.99,0.00,30.3,29.2,00.0,39.0,32.1,17.0,0000.0,0009.37,0005.95,0005.62
2022-08-18 12:58:00,,0830.8,5.00,0.00,30.3,29.2,00.0,39.1,32.2,16.7,0000.0,0009.36,0005.96,0005.65
2022-08-18 12:59:00,,0830.8,5.01,0.00,30.3,29.2,00.0,39.1,32.2,16.4,0000.0,0009.41,0005.98,0005.65
